Theta_e
286 287 287 285 284 283 282 282 278 281 281 285 287 281 281 281 282 284 281 281 282 282 284 285 285 283 283 283 284 284 283 284 284 285 285 285 285 285 286 286 286 286 286 286
278 283 283 280 282 282 281 281 280 280 280 287 282 281 281 281 281 282 281 281 282 283 283 284 285 283 282 282 283 283 282 282 283 284 282 281 284 284 283 284 285 285 284 284
275 280 278 273 277 280 281 282 281 277 280 280 278 279 280 280 281 281 281 281 282 282 283 283 285 284 282 282 283 282 280 281 281 281 280 279 282 282 282 282 283 283 283 284
273 273 267 279 282 281 279 280 279 278 278 279 279 280 282 283 282 281 282 282 282 283 283 284 285 283 283 282 281 281 280 280 280 279 278 278 280 278 279 281 282 282 283 283
269 270 274 275 278 277 276 277 280 278 278 278 280 281 280 283 283 283 284 283 284 284 284 284 282 282 281 280 280 280 278 279 279 278 276 276 276 277 277 279 280 281 282 282
264 266 264 274 277 279 278 271 279 278 278 278 279 273 277 282 283 283 284 284 284 283 283 281 282 281 279 278 278 278 278 278 278 277 275 274 275 275 276 277 277 280 281 282
271 268 272 278 278 279 269 272 280 280 279 278 276 279 282 283 283 284 284 283 283 282 280 280 280 279 277 277 276 278 278 277 276 275 274 273 273 274 273 274 275 277 278 280
266 265 265 278 276 273 278 281 281 280 280 279 280 281 281 282 282 283 282 281 280 279 279 279 279 277 276 275 276 277 276 274 273 272 272 272 270 271 271 272 272 274 276 278
270 272 279 279 279 282 283 281 281 281 282 281 280 280 281 280 280 280 279 278 278 277 276 276 276 275 273 274 275 273 271 270 269 270 269 269 268 269 269 270 271 272 275 277
274 277 278 280 282 282 283 282 283 283 281 280 278 278 277 276 276 275 275 274 274 272 271 271 272 271 270 270 270 268 266 267 267 266 267 267 268 268 268 269 270 271 273 276
274 277 278 280 281 282 282 283 280 277 277 276 275 274 273 272 272 271 271 270 270 268 267 267 267 266 266 265 264 263 263 263 263 264 264 264 265 266 267 268 269 269 271 273
272 278 278 279 282 282 279 279 275 273 273 273 271 270 270 269 269 268 267 267 265 265 264 263 262 262 262 262 261 260 260 260 261 261 261 262 262 263 267 269 270 272 274 274
278 281 281 282 281 277 275 273 271 270 269 269 269 268 267 266 266 265 264 263 262 261 261 260 260 260 260 260 260 259 259 259 260 260 260 260 261 261 260 264 268 270 272 274
281 280 278 278 276 272 271 269 268 266 267 267 266 265 264 263 262 261 261 261 261 260 259 259 259 258 260 261 260 259 259 259 259 260 260 260 260 260 261 261 261 263 268 270
279 272 272 271 270 267 266 265 264 264 264 264 263 262 261 260 259 259 260 259 258 258 258 259 258 258 260 260 259 259 260 260 260 260 260 260 260 260 261 261 261 262 264 267
268 267 267 267 266 264 263 262 262 262 262 261 260 260 259 258 257 257 257 257 256 258 258 258 258 259 260 260 259 259 261 261 261 261 261 261 261 261 261 262 262 262 264 266
265 264 263 264 263 262 261 261 261 261 260 259 258 257 256 255 254 254 256 258 260 259 259 259 259 259 259 259 260 260 261 261 261 261 261 262 262 262 262 262 262 263 265 268
262 261 261 260 260 260 260 259 259 258 257 257 255 253 252 251 253 254 257 259 259 258 259 260 259 260 260 259 260 261 262 262 262 262 263 263 264 265 266 265 264 265 267 272
258 258 258 258 258 257 257 256 255 256 255 254 252 252 253 253 254 256 259 257 256 257 259 259 261 260 259 261 262 261 261 261 262 262 263 264 265 266 266 268 268 269 268 268
255 255 255 255 255 255 254 254 253 252 251 250 250 250 251 253 256 258 258 256 257 258 258 258 259 259 260 260 261 261 260 260 261 261 262 262 263 263 263 263 263 263 263 262
253 253 253 253 253 253 252 252 250 250 251 249 249 251 252 256 258 258 256 256 259 259 258 259 259 260 260 258 259 259 259 259 259 260 260 260 261 261 261 262 261 261 261 261
251 250 250 251 250 250 250 249 249 248 248 249 250 252 256 257 258 258 258 256 259 258 259 258 259 260 259 258 258 258 258 258 258 259 259 259 259 259 259 260 260 260 260 260
249 248 249 247 248 250 248 248 249 250 250 252 255 257 258 258 258 257 256 259 259 259 259 258 259 260 258 258 257 257 257 257 257 258 258 258 258 258 259 259 259 259 259 259
247 247 247 248 244 246 250 254 253 255 255 258 258 259 258 257 258 259 259 258 258 257 257 258 259 260 257 257 256 257 257 257 256 257 257 257 258 258 259 259 259 259 259 259
246 246 246 247 251 253 252 255 256 258 258 258 258 259 258 259 257 258 258 258 258 257 257 257 258 257 256 256 256 256 256 256 256 256 256 256 256 256 256 257 257 258 258 258
250 252 252 250 252 254 255 256 256 257 257 257 258 258 258 258 258 258 257 256 256 255 255 255 255 254 255 255 255 255 255 255 255 255 255 255 255 256 256 256 256 256 256 256
251 252 253 254 255 255 255 255 255 255 256 256 256 257 256 256 256 255 254 254 254 254 254 253 254 253 253 253 254 254 254 254 253 253 254 254 254 255 255 255 255 256 256 255
Wind_Speed
13 12 11 14 15 17 17 15 10 14 18 21 16 2 1 2 3 6 4 4 5 7 8 9 11 13 11 11 11 11 11 11 12 12 12 12 12 12 12 12 11 11 11 11
14 16 14 16 18 19 19 20 22 24 26 18 1 2 4 4 6 7 6 7 8 9 9 9 8 9 11 13 14 13 11 12 12 11 11 12 12 12 12 11 10 9 10 12
17 15 9 12 20 18 19 23 23 23 13 6 3 4 7 7 10 12 9 10 11 12 11 10 10 10 10 11 11 11 12 11 10 9 10 12 12 13 14 13 13 12 10 10
12 7 21 14 11 14 18 17 1 4 4 3 4 8 9 9 12 14 11 10 12 12 13 12 10 11 11 10 11 11 11 11 10 11 12 14 12 13 13 13 13 13 13 12
9 16 18 20 17 9 8 13 7 8 4 4 9 9 15 10 14 16 15 12 11 10 12 12 13 13 11 12 12 12 13 12 11 10 13 15 15 16 14 13 13 13 12 14
3 8 10 7 2 2 2 9 8 3 2 7 7 9 13 16 14 14 15 13 11 12 11 12 13 10 12 13 13 14 13 13 11 10 11 13 15 16 16 14 16 13 15 14
13 12 9 5 4 5 6 4 6 6 11 12 11 13 16 16 15 15 14 13 11 12 12 13 12 11 14 15 15 14 13 13 13 13 12 13 15 14 15 15 16 16 16 15
1 4 11 5 7 7 1 9 10 12 15 14 15 15 16 16 16 15 13 11 13 12 13 14 14 13 16 18 16 14 13 14 14 14 12 13 15 15 16 15 16 17 16 16
10 7 3 6 7 11 15 15 17 14 14 14 13 15 14 13 10 8 11 11 11 11 15 15 14 13 17 18 17 16 16 16 15 16 16 15 16 16 14 14 14 15 13 14
13 19 19 19 19 19 19 16 14 11 10 9 11 7 8 8 9 11 11 13 12 13 15 18 15 16 16 19 19 18 20 20 18 17 18 16 13 13 13 13 13 13 14 14
15 20 18 21 18 21 20 14 4 1 1 2 5 7 8 9 11 11 12 13 12 13 16 18 18 18 17 18 19 20 20 20 19 16 17 16 15 13 13 15 16 14 14 14
16 21 16 22 17 12 10 7 2 1 2 1 4 8 9 10 10 12 13 14 14 16 16 17 17 18 18 16 17 18 18 15 14 14 14 14 15 15 24 31 35 36 38 29
20 22 18 21 10 2 6 5 3 1 1 5 4 5 8 11 11 14 13 14 14 15 16 17 17 18 17 17 16 17 18 18 14 15 14 14 14 15 16 16 30 32 33 34
19 15 16 10 6 6 4 3 3 1 2 3 4 5 8 10 12 12 14 14 15 15 16 17 17 18 17 17 16 17 18 22 15 14 14 14 14 15 14 15 15 13 19 24
12 2 2 7 7 5 3 1 2 3 3 4 5 7 8 11 13 14 14 13 13 15 16 16 18 18 16 16 17 18 16 14 14 14 14 16 15 15 15 15 15 14 13 19
5 4 4 3 4 4 1 0 3 3 5 6 8 8 9 11 13 13 13 13 13 14 17 17 17 17 16 16 18 16 15 20 18 13 14 14 13 14 13 13 13 13 12 12
4 3 3 4 4 3 3 3 4 5 7 7 9 9 9 10 10 10 11 12 13 15 16 16 16 16 17 16 16 13 12 13 18 14 13 13 13 13 13 12 12 11 12 13
5 5 4 3 1 4 5 4 5 7 8 8 7 7 8 7 10 12 13 13 14 14 13 12 14 17 16 16 15 13 11 12 12 12 12 12 12 12 12 11 11 11 11 10
3 3 2 1 2 4 5 6 7 7 8 6 6 7 8 9 10 12 12 12 13 13 13 15 20 19 17 17 16 11 11 12 11 10 11 14 10 10 10 8 7 6 7 5
2 3 3 4 4 4 6 6 6 6 7 5 5 6 8 8 8 10 9 11 10 9 14 16 16 15 16 15 18 10 11 11 11 10 9 10 10 10 9 10 9 8 7 7
3 3 5 5 6 6 7 6 5 7 8 5 6 8 8 9 8 8 9 8 9 11 13 13 11 11 10 14 12 10 10 10 10 9 9 10 10 10 10 10 9 9 8 8
2 4 6 6 5 7 6 5 6 7 7 7 7 7 8 8 7 7 7 8 8 14 10 8 9 15 12 15 9 10 11 11 9 9 9 9 9 9 10 10 9 9 9 8
4 3 5 5 5 7 7 7 6 5 6 6 7 7 6 6 5 6 6 5 8 11 8 8 13 16 16 9 9 10 10 11 10 10 9 9 9 9 9 9 9 9 9 9
3 3 4 4 4 3 5 6 6 6 6 6 5 4 4 4 4 2 5 8 10 10 7 9 11 15 12 8 9 9 10 10 9 9 10 13 9 9 9 9 9 9 9 10
3 3 3 3 4 4 5 5 6 4 4 3 2 3 3 2 3 5 5 6 8 7 6 10 13 13 8 8 8 9 9 8 9 8 9 8 8 9 9 9 9 9 9 8
1 2 2 3 3 4 4 4 4 3 4 4 2 3 3 3 3 4 4 5 5 6 6 6 7 8 7 8 8 8 8 8 9 9 9 8 8 8 8 8 8 8 7 6
1 1 2 1 2 4 4 4 4 4 4 5 4 3 4 4 4 5 6 5 5 5 5 6 6 7 7 7 7 7 7 7 8 7 7 7 7 7 6 6 6 5 5 5
Wind_Direction
275 281 279 273 275 264 260 268 257 287 289 279 300 345 34 324 251 226 258 320 331 337 331 333 340 341 342 335 341 344 342 342 341 339 341 335 332 328 323 320 310 299 279 262
282 278 258 262 260 264 275 271 263 260 265 289 63 334 253 292 297 276 296 335 336 331 322 317 319 327 323 326 331 334 334 332 331 328 333 330 324 323 321 319 318 306 287 275
268 276 289 257 244 259 266 269 270 275 297 95 185 285 301 305 317 298 296 328 335 329 318 302 294 312 303 308 314 310 311 312 315 316 316 323 315 321 321 320 317 308 293 274
273 301 257 277 317 276 272 282 58 113 130 198 280 299 292 284 285 284 274 299 317 320 317 310 293 302 295 293 295 295 298 301 305 313 312 315 303 308 308 311 310 308 299 289
250 249 290 302 280 250 243 279 182 161 178 326 313 301 290 287 285 281 268 280 296 302 304 303 296 300 289 283 288 278 278 283 291 304 305 309 307 306 308 301 300 297 296 293
161 250 264 312 121 104 126 274 174 188 257 295 299 273 292 310 308 283 272 268 287 302 306 296 298 302 285 282 280 273 280 277 281 281 283 288 295 298 298 297 296 295 290 287
237 249 265 267 146 146 235 302 173 222 265 278 266 264 286 294 288 277 270 284 299 305 300 297 302 300 288 289 284 285 280 278 277 283 282 284 286 289 294 293 291 288 283 279
157 249 265 160 127 224 281 295 295 280 287 284 288 282 284 287 292 293 293 300 307 304 299 301 307 306 296 292 301 297 286 277 280 285 286 287 284 283 283 281 279 280 282 277
216 245 251 185 249 248 284 284 282 285 288 290 281 283 290 299 310 305 308 306 307 303 303 302 308 309 301 302 310 306 297 288 285 285 283 280 278 278 278 275 270 272 273 271
262 253 257 263 262 268 277 276 280 286 290 290 283 304 300 310 311 314 315 315 320 317 308 305 313 312 309 310 311 305 297 293 294 291 289 285 279 274 270 268 268 266 265 265
252 261 272 263 264 268 273 277 271 73 33 316 317 310 317 313 312 311 314 316 317 311 303 303 311 309 310 306 305 299 297 297 295 291 288 287 277 275 270 267 267 271 267 273
255 266 261 272 274 286 262 248 179 264 254 1 333 314 323 311 314 315 317 318 310 307 304 303 303 299 298 300 299 297 296 295 293 293 288 284 283 280 270 274 274 270 268 262
254 265 262 263 296 208 197 180 167 184 329 313 327 327 317 309 313 315 308 311 307 305 300 297 296 295 296 295 292 288 288 290 288 285 283 283 281 282 286 281 278 277 275 271
260 274 266 241 232 152 148 130 106 351 300 320 327 316 310 307 310 310 311 310 308 300 291 291 291 292 294 297 297 292 286 283 281 279 278 277 276 277 278 280 284 279 275 277
263 158 340 111 130 127 101 71 310 310 317 309 328 315 316 315 311 311 309 302 297 291 288 295 299 296 301 302 298 294 290 285 283 281 278 275 275 273 272 274 273 278 281 277
122 115 118 160 144 141 121 269 287 305 315 316 310 310 313 307 302 298 296 296 297 304 303 301 299 301 304 303 298 293 288 284 283 282 281 278 275 273 273 272 272 271 271 272
148 209 187 205 198 227 251 267 279 305 306 299 300 306 305 299 295 287 290 293 300 297 298 300 304 310 304 297 301 299 293 291 287 283 280 279 277 272 268 267 268 270 270 268
77 84 77 89 230 278 281 297 309 305 295 291 289 293 289 286 287 294 297 308 307 302 302 314 314 310 316 309 303 302 303 301 299 297 294 290 286 277 269 258 260 266 270 272
55 98 84 294 298 289 293 292 287 283 284 278 281 284 284 280 281 286 303 311 306 312 322 325 321 325 315 319 323 316 309 310 310 310 313 315 320 329 339 324 292 326 344 358
29 355 335 299 301 288 288 274 273 276 273 272 276 280 281 277 281 296 306 296 293 302 317 319 325 322 330 331 329 321 324 327 330 332 336 337 343 348 355 4 13 17 19 26
322 309 296 298 296 290 274 279 282 276 281 261 261 267 267 282 291 299 305 309 321 324 316 322 329 332 336 338 337 334 334 336 342 346 347 350 350 358 5 13 19 25 29 37
296 299 295 294 292 293 286 278 268 266 268 270 264 256 270 287 299 300 281 271 314 323 323 333 335 345 343 340 347 347 347 348 347 350 359 2 4 4 6 13 23 33 40 47
279 271 292 290 279 286 300 279 270 254 265 265 266 281 289 297 303 308 319 323 322 326 332 340 339 352 350 352 355 356 358 359 356 356 0 8 15 18 16 16 24 31 38 42
272 271 264 283 290 283 304 315 300 281 257 277 280 286 301 309 317 267 309 314 325 335 335 344 347 356 352 356 358 0 5 7 7 7 7 9 9 14 25 29 31 31 39 46
260 284 284 313 323 312 296 292 298 306 322 327 336 353 339 338 292 314 327 325 332 342 347 351 354 355 358 358 360 3 6 8 5 6 13 18 19 22 19 20 27 30 34 37
255 316 316 285 282 311 311 314 322 340 344 346 350 3 357 352 339 334 332 334 337 343 355 350 354 353 351 353 356 2 4 4 8 10 10 14 16 22 27 29 29 31 35 39
288 313 349 356 1 344 335 342 346 350 349 341 321 4 356 349 346 343 340 341 342 347 347 348 348 351 345 345 352 357 359 360 6 1 5 5 6 9 15 18 18 19 24 27